ARIANE 2 DEB, 28565

Orbit data source: Space-Track

ARIANE 2 DEB, 28565 is space debris in HEO originally from a launch on Fri, 27 Jan 1989 UTC launched from the French Guiana (FRGUI). Debris objects in space refer to the collection of defunct objects orbiting the Earth. Examples of debris include non-operational satellites, rocket bodies, and fragments generated from explosions, collisions, or faulty payload assembly.

Loading next visibility...
Identifier
28565, 1989-006AG
Orbit
HEO
Country
Flag of FRFR
Related business
Manufacturer
EADS/LV
Mission
Spacecraft
Bus & Motor
Unknown
Mass
Unknown
Launch date (UTC)
1989-01-27 (37 years ago)
Launch vehicle
Unknown
Launch site
French Guiana (FRGUI)
Object type
Payload
Rocket body
Debris
Shape & HBR
Unknown shape, 0.3 m
Radar Cross Section
Medium (>0.1 m² and <1 m²)

Expand to show TLE details & history
Last TLE update: 3 weeks ago

TLE from 3 weeks ago
0 ARIANE 2 DEB
1 28565U 89006AG  26151.89089665  .00000265  00000-0  22489-2 0  9995
2 28565   8.5151 314.3484 7089191 320.8251   4.8491  2.39503558190210
Epoch: 2026-05-31T21:22Z
TLE epoch observation values (Epoch: 2026-05-31T21:22:53.470Z)
Latitude
-0.00026°
Longitude
104.10913°
Altitude
1,178.822 km
Speed
9.412 km/s
True Right ascension
20h 56m 52s
True Declination
0° 00' 01"
Sunlit
Object was in daylight at epoch
Visualization orbit readout
Latitude
Unknown
Longitude
Unknown
Altitude
Unknown
Speed
Unknown
Apparent Right ascension
Unknown
Apparent Declination
Unknown
Sunlit
N/A
Visualization observer readout
Local Sidereal Time
12:51:53
Azimuth
Unknown
Elevation
Unknown
Doppler factor
Unknown
Orbital elements
Apogee altitude
33,956.392 km
Perigee altitude
492.06 km
Semi-major axis
23,602.363 km
Eccentricity
0.70892
Inclination
8.5151°
RAAN
314.3484°
Arg. of periapsis
320.8251°
True anomaly
37.9226°
Mean anomaly
4.8491°
Eccentric anomaly
16.14103°
Mean motion
0.59856 °/min
Orbital period
601.44 mins
BSTAR
0.0022489
Loading maneuver chart data...
Computing Atmospheric mass density...
Loading historical data...
Loading historical data...
Loading historical data...
Loading historical data...
Loading historical data...
Loading historical data...
Loading historical data...

Documentation

Showing up to 5 results
|